Simultaneous Nadir Overpasses (SNOs) Predictions

Prediction of SNOs between METOP-C and LANDSAT-8 Satellite Orbit:

Table of predicted SNOs for the next 14.0 days since TLE Epoch: 1/29/2022
Index Date (METOP-C) Time (METOP-C) Lat,Lon (METOP-C) SZA (METOP-C ) Date (LANDSAT-8) Time (LANDSAT-8) Lat,Lon (LANDSAT-8) SZA (LANDSAT-8 ) Distance(km) Time Diff (sec)
1 01/29/2022 23:16:20 -81.07, 49.66 79.65 01/29/2022 23:17:11 -81.07, 49.68 79.63 0.39 51
2 01/30/2022 00:06:58 81.11,-142.08 100.45 01/30/2022 00:06:36 81.10,-142.20 100.43 2.01 22
3 02/01/2022 18:50:41 -81.08, 116.30 80.42 02/01/2022 18:51:25 -81.08, 116.24 80.41 1.20 44
4 02/01/2022 19:41:19 81.11, -75.52 99.68 02/01/2022 19:40:50 81.11, -75.67 99.65 2.56 29
5 02/04/2022 14:25:03 -81.09,-177.08 81.22 02/04/2022 14:25:40 -81.09,-177.26 81.23 3.12 37
6 02/04/2022 15:15:42 81.11, -9.35 98.82 02/04/2022 15:15:05 81.11, -9.19 98.83 3.04 37
7 02/07/2022 09:59:26 -81.08,-110.86 82.11 02/07/2022 09:59:55 -81.09,-110.80 82.09 1.10 29
8 02/07/2022 10:50:04 81.11, 57.17 97.96 02/07/2022 10:49:20 81.11, 57.25 97.96 1.46 44
9 02/10/2022 05:33:47 -81.09, -44.30 82.99 02/10/2022 05:34:09 -81.08, -44.40 83.00 1.74 22



Historial Predications of SNOs between METOP-C and LANDSAT-8
